Showing default

INMARSAT GX5, 44801

Orbit data source: Space-Track

INMARSAT GX5, 44801 is a payload satellite owned by INMARSAT-Ltd (UK) in GEO that was launched on Tue, 26 Nov 2019 UTC via an ARIANE 5ECA launch vehicle from the French Guiana (FRGUI). Payload-class satellites include a variety of spacecraft equipped with specific instruments for various scientific and technological missions. These include communications satellites like Starlink; space stations such as the ISS; scientific satellites like the Hubble; Earth observation satellites from companies like Planet Labs, Umbra, and HawkEye 360; GPS; miniature CubeSats for education and research; and military/defense satellites.

Not visible in the next 10 days
Identifier
44801, 2019-080B
Orbit
GEO
Last TLE update
8 hours ago
Origin
Manufacturer
Thales Alenia
Mission
Operational Commercial Communications
Bus & Motor
SPACEBUS 4000B2, S400
Mass
~4,007 kg wet, ~2,200 kg dry
Launch date (UTC)
2019-11-26 (5 years ago)
Launch vehicle
ARIANE 5ECA
Launch site
French Guiana (FRGUI)
Object type
Payload
Rocket body
Debris
Shape & HBR
Box + 2 Pan, Unknown HBR
Radar Cross Section
39.423 m², Large (>1 m²)

Expand to show TLE details & history

TLE from 8 hours ago
0 INMARSAT GX5
1 44801U 19080B   25128.88442527  .00000080  00000-0  00000-0 0  9991
2 44801   0.0445   8.5452 0001944  31.6195 156.2105  1.00270144  2730
Epoch: 2025-05-08T21:13Z
Definitive object data (Epoch: 2025-05-08T21:13:34.343Z)
Latitude
-0.0256°
Longitude
11.03972°
Altitude
35,794.085 km
Speed
3.074 km/s
True Right ascension
13h 05m 31s
True Declination
0° 01' 32"
Sunlit
Object was in daylight at TLE epoch
Visualization TLE readout
Latitude
-0.00815°
Longitude
136.64251°
Altitude
35,784.831 km
Speed
3.075 km/s
Apparent Right ascension
21h 50m 36s
Apparent Declination
-5° 13' 48"
Sunlit
Object is in daylight
Visualization observer readout
Local Sidereal Time
13:43:26
Azimuth
72.51° E
Elevation
-27.444°
Doppler factor
1
Orbital elements
Apogee altitude
35,796.322 km
Perigee altitude
35,779.928 km
Semi-major axis
42,166.262 km
Eccentricity
0.0001944
Inclination
0.0445°
RAAN
8.5452°
Arg. of periapsis
31.6195°
True anomaly
156.21948°
Mean anomaly
156.2105°
Eccentric anomaly
156.21499°
Mean motion
0.25067 °/min
BSTAR
Unknown
Orbital period
1436.17 mins
Loading historical data...
44801 neighbors
Loading maneuver chart data...
Loading SW <> Apogee altitude chart data...
Loading historical data...
Loading historical data...
Loading historical data...
Loading historical data...
Loading historical data...
Loading historical data...
Loading historical data...
Other satellites on launch #80 in the year 2019 (2019-11-26 UTC)

INMARSAT GX5 Visibility forecast

Observer location: undefined°, undefined°

INMARSAT GX5 is not visible in the next 10 days
Span
Click to sort rows by Start time (UTC) header in descending order
Start Az.
Max El. time (UTC)
Max El. Az.
Max El.
End time (UTC)
End Az.
|